Change the Weather History Date:

Monday, April 30, 2012

  Actual Average Record
Temperature  
Mean Temperature 74 °F 73 °F  
Max Temperature 80 °F 79 °F 86 °F (2010)
Min Temperature 67 °F 66 °F 62 °F (1985)
Degree Days  
Heating Degree Days 0 0  
Month to date heating degree days 0 0  
Since 1 July heating degree days 0 0  
Cooling Degree Days 9 8  
Month to date cooling degree days 215 216  
Year to date cooling degree days 835 797  
Growing Degree Days 22 (Base 50)    
Moisture  
Dew Point 65 °F    
Average Humidity 76    
Maximum Humidity 93    
Minimum Humidity 58    
Precipitation  
Precipitation 0.47 in 0.32 in 3.70 in (1970)
Month to date precipitation 6.63 11.54  
Year to date precipitation 37.82 43.79  
Snow  
Snow 0.00 in - - ()
Month to date snowfall 0.0  
Since 1 July snowfall 0.0  
Snow Depth 0.00 in    
Sea Level Pressure  
Sea Level Pressure 30.13 in    
Wind  
Wind Speed 8 mph (SE)    
Max Wind Speed 16 mph    
Max Gust Speed 24 mph    
Visibility 9 miles    
Events Rain    
T = Trace of Precipitation, MM = Missing Value Source: NWS Daily Summary

Daily Weather History Graph

Daily Weather History Graph

Search for Another Location

Airport or City:

Trip Planner

Search our weather history database for the weather conditions in past years. The results will help you decide how hot, cold, wet, or windy it might be!

Date:

Astronomy

Apr. 30, 2012 Rise Set
Actual Time 5:51 AM HST 6:43 PM HST
Civil Twilight 5:28 AM HST 7:06 PM HST
Nautical Twilight 5:01 AM HST 7:33 PM HST
Astronomical Twilight 4:33 AM HST 8:01 PM HST
Moon 1:36 PM HST (4/30) 1:33 AM HST (4/30)
Length of Visible Light 13h 37m
Length of Day
12h 51m
Waxing Gibbous, 66% of the Moon is Illuminated
Apr 30
Waxing Gibbous
May 5
Full
May 12
Last Quarter
May 20
New
May 28
First Quarter

Hourly Weather History & Observations

Time (HST) Temp. Dew Point Humidity Pressure Visibility Wind Dir Wind Speed Gust Speed Precip Events Conditions
12:10 AM 69.8 °F 66.2 °F 88% 30.15 in 10.0 mi Variable 3.5 mph - 0.02 in   Overcast
12:45 AM 69.8 °F 64.4 °F 83% 30.15 in 10.0 mi ESE 8.1 mph - 0.03 in   Mostly Cloudy
12:53 AM 68.0 °F 64.9 °F 90% 30.14 in 10.0 mi SE 10.4 mph - 0.03 in   Mostly Cloudy
1:53 AM 68.0 °F 64.9 °F 90% 30.13 in 10.0 mi WSW 6.9 mph - N/A   Overcast
2:09 AM 68.0 °F 64.4 °F 88% 30.13 in 5.0 mi Calm Calm - 0.00 in Rain Light Rain
2:53 AM 68.0 °F 64.9 °F 90% 30.11 in 10.0 mi West 3.5 mph - 0.00 in   Overcast
3:08 AM 68.0 °F 64.4 °F 88% 30.12 in 0.8 mi East 16.1 mph 24.2 mph 0.00 in Rain Heavy Rain
3:17 AM 66.2 °F 64.4 °F 94% 30.11 in 1.5 mi Variable 3.5 mph 23.0 mph 0.29 in Rain Light Rain
3:27 AM 68.0 °F 64.4 °F 88% 30.11 in 4.0 mi ESE 8.1 mph - 0.33 in Rain Light Rain
3:35 AM 68.0 °F 64.4 °F 88% 30.11 in 2.0 mi Variable 3.5 mph - 0.36 in Rain Heavy Rain
3:43 AM 68.0 °F 64.4 °F 88% 30.11 in 3.0 mi Calm Calm - 0.44 in Rain Light Rain
3:53 AM 68.0 °F 64.0 °F 87% 30.11 in 10.0 mi South 3.5 mph - 0.44 in   Overcast
4:53 AM 66.9 °F 64.9 °F 93% 30.12 in 10.0 mi WSW 4.6 mph - N/A   Overcast
5:53 AM 68.0 °F 64.9 °F 90% 30.14 in 10.0 mi Calm Calm - N/A   Mostly Cloudy
6:53 AM 71.1 °F 64.9 °F 81% 30.15 in 10.0 mi ENE 3.5 mph - N/A   Mostly Cloudy
7:53 AM 73.9 °F 64.0 °F 71% 30.16 in 10.0 mi East 10.4 mph - 0.00 in   Scattered Clouds
8:53 AM 75.9 °F 64.9 °F 69% 30.17 in 10.0 mi ESE 12.7 mph - N/A   Scattered Clouds
9:53 AM 77.0 °F 66.0 °F 69% 30.17 in 10.0 mi East 11.5 mph - N/A   Scattered Clouds
10:53 AM 78.1 °F 63.0 °F 60% 30.15 in 10.0 mi ESE 10.4 mph 17.3 mph N/A   Mostly Cloudy
11:53 AM 78.1 °F 63.0 °F 60% 30.14 in 10.0 mi East 12.7 mph - N/A   Mostly Cloudy
12:53 PM 79.0 °F 62.1 °F 56% 30.12 in 10.0 mi East 12.7 mph - N/A   Mostly Cloudy
1:53 PM 77.0 °F 64.9 °F 66% 30.09 in 10.0 mi East 11.5 mph - N/A   Overcast
2:53 PM 79.0 °F 63.0 °F 58% 30.08 in 10.0 mi ESE 12.7 mph - N/A   Partly Cloudy
3:53 PM 78.1 °F 64.0 °F 62% 30.07 in 10.0 mi East 9.2 mph 16.1 mph N/A   Scattered Clouds
4:53 PM 77.0 °F 64.0 °F 64% 30.07 in 10.0 mi East 8.1 mph - N/A   Scattered Clouds
5:53 PM 73.0 °F 64.0 °F 73% 30.09 in 10.0 mi East 3.5 mph - N/A   Scattered Clouds
6:40 PM 73.4 °F 64.4 °F 73% 30.10 in 7.0 mi East 5.8 mph - 0.00 in Rain Light Rain
6:50 PM 71.6 °F 64.4 °F 78% 30.10 in 10.0 mi East 5.8 mph - 0.00 in Rain Light Rain
6:53 PM 72.0 °F 64.9 °F 78% 30.10 in 10.0 mi East 4.6 mph - 0.00 in   Mostly Cloudy
7:53 PM 70.0 °F 66.0 °F 87% 30.12 in 10.0 mi WSW 4.6 mph - N/A   Mostly Cloudy
8:04 PM 71.6 °F 66.2 °F 83% 30.13 in 10.0 mi SW 3.5 mph - N/A   Overcast
8:12 PM 69.8 °F 66.2 °F 88% 30.14 in 10.0 mi South 4.6 mph - N/A   Overcast
8:26 PM 71.6 °F 66.2 °F 83% 30.14 in 10.0 mi Variable 6.9 mph 16.1 mph N/A   Overcast
8:35 PM 71.6 °F 64.4 °F 78% 30.14 in 10.0 mi South 5.8 mph - N/A   Overcast
8:53 PM 70.0 °F 66.0 °F 87% 30.14 in 10.0 mi SW 4.6 mph - N/A   Overcast
9:53 PM 69.1 °F 66.0 °F 90% 30.15 in 10.0 mi Variable 4.6 mph - N/A   Overcast
10:01 PM 69.8 °F 64.4 °F 83% 30.16 in 10.0 mi WSW 6.9 mph - N/A   Overcast
10:53 PM 69.1 °F 66.0 °F 90% 30.16 in 10.0 mi West 3.5 mph - N/A   Overcast
11:18 PM 69.8 °F 66.2 °F 88% 30.16 in 10.0 mi SSW 3.5 mph - N/A   Overcast
11:45 PM 69.8 °F 64.4 °F 83% 30.15 in 10.0 mi WSW 5.8 mph - 0.00 in   Mostly Cloudy
11:53 PM 69.1 °F 64.9 °F 87% 30.15 in 10.0 mi WSW 4.6 mph - 0.00 in   Mostly Cloudy